QPF
0.00 0.01 0.01 0.01 0.01 0.01 0.01 0.01 0.01 0.01 0.01 0.00 0.00 0.00 0.00 0.01 0.01 0.01 0.01 0.02 0.02 0.02 0.05 0.05 0.07 0.08 0.09 0.10 0.12 0.17 0.20 0.23 0.21 0.17 0.14 0.11 0.09 0.07 0.06 0.05 0.06 0.07 0.05 0.04
0.00 0.00 0.00 0.00 0.01 0.01 0.01 0.01 0.01 0.00 0.00 0.00 0.00 0.00 0.00 0.00 0.01 0.01 0.01 0.01 0.01 0.02 0.04 0.04 0.05 0.06 0.08 0.09 0.10 0.12 0.18 0.20 0.18 0.16 0.15 0.09 0.06 0.05 0.04 0.03 0.05 0.07 0.06 0.04
0.00 0.00 0.00 0.00 0.00 0.01 0.01 0.00 0.00 0.00 0.01 0.01 0.00 0.00 0.00 0.00 0.00 0.00 0.00 0.01 0.01 0.01 0.02 0.03 0.03 0.05 0.05 0.07 0.08 0.11 0.15 0.19 0.18 0.16 0.15 0.11 0.05 0.03 0.03 0.02 0.03 0.05 0.05 0.04
0.00 0.00 0.00 0.00 0.00 0.00 0.00 0.00 0.00 0.01 0.01 0.02 0.01 0.00 0.00 0.00 0.00 0.00 0.00 0.00 0.01 0.01 0.01 0.02 0.03 0.04 0.04 0.05 0.08 0.10 0.14 0.15 0.17 0.16 0.14 0.13 0.07 0.03 0.02 0.02 0.02 0.04 0.06 0.05
0.00 0.00 0.00 0.00 0.00 0.00 0.00 0.00 0.00 0.00 0.01 0.01 0.01 0.01 0.00 0.00 0.00 0.00 0.00 0.00 0.01 0.02 0.01 0.01 0.03 0.04 0.04 0.05 0.07 0.08 0.12 0.14 0.16 0.16 0.16 0.14 0.10 0.04 0.02 0.02 0.02 0.03 0.05 0.06
0.00 0.00 0.00 0.00 0.00 0.00 0.00 0.00 0.00 0.00 0.01 0.01 0.00 0.00 0.00 0.00 0.00 0.00 0.01 0.01 0.01 0.01 0.01 0.02 0.03 0.03 0.04 0.05 0.06 0.08 0.11 0.13 0.14 0.14 0.17 0.16 0.11 0.05 0.03 0.02 0.01 0.03 0.05 0.06
0.00 0.00 0.00 0.00 0.00 0.00 0.00 0.00 0.00 0.00 0.01 0.00 0.00 0.00 0.00 0.00 0.00 0.00 0.01 0.00 0.01 0.01 0.02 0.02 0.02 0.03 0.04 0.05 0.05 0.08 0.10 0.11 0.11 0.10 0.12 0.15 0.11 0.06 0.04 0.04 0.02 0.03 0.04 0.05
0.00 0.00 0.00 0.00 0.00 0.00 0.00 0.00 0.00 0.00 0.00 0.00 0.00 0.00 0.00 0.00 0.00 0.00 0.00 0.00 0.00 0.01 0.01 0.02 0.02 0.03 0.04 0.06 0.05 0.04 0.05 0.07 0.09 0.09 0.09 0.12 0.12 0.07 0.05 0.05 0.04 0.04 0.04 0.04
0.01 0.00 0.00 0.00 0.00 0.00 0.00 0.00 0.00 0.00 0.00 0.00 0.00 0.00 0.00 0.01 0.00 0.00 0.00 0.00 0.00 0.00 0.01 0.01 0.01 0.02 0.02 0.03 0.04 0.04 0.03 0.04 0.06 0.06 0.07 0.08 0.10 0.08 0.07 0.06 0.06 0.04 0.04 0.05
0.01 0.01 0.00 0.00 0.00 0.00 0.00 0.00 0.00 0.01 0.01 0.00 0.00 0.00 0.00 0.00 0.00 0.00 0.00 0.00 0.00 0.00 0.00 0.00 0.01 0.01 0.01 0.01 0.02 0.03 0.03 0.03 0.03 0.03 0.04 0.04 0.07 0.08 0.06 0.05 0.05 0.05 0.04 0.04
0.00 0.01 0.00 0.00 0.00 0.00 0.00 0.00 0.00 0.00 0.00 0.00 0.00 0.00 0.00 0.00 0.00 0.00 0.00 0.00 0.00 0.00 0.00 0.00 0.00 0.00 0.01 0.01 0.01 0.02 0.03 0.03 0.02 0.02 0.02 0.02 0.03 0.06 0.06 0.05 0.04 0.04 0.04 0.04
0.00 0.01 0.01 0.00 0.00 0.00 0.00 0.00 0.00 0.01 0.01 0.00 0.00 0.00 0.00 0.00 0.00 0.00 0.00 0.00 0.00 0.00 0.00 0.00 0.00 0.00 0.00 0.01 0.01 0.02 0.02 0.02 0.02 0.01 0.02 0.01 0.02 0.04 0.05 0.04 0.04 0.03 0.03 0.04
0.01 0.02 0.02 0.01 0.00 0.01 0.01 0.01 0.01 0.01 0.01 0.01 0.01 0.01 0.00 0.00 0.00 0.00 0.00 0.00 0.00 0.00 0.00 0.00 0.00 0.00 0.00 0.00 0.00 0.01 0.01 0.01 0.01 0.01 0.01 0.01 0.01 0.02 0.02 0.03 0.03 0.02 0.02 0.02
0.01 0.02 0.02 0.01 0.01 0.01 0.01 0.01 0.01 0.01 0.02 0.01 0.01 0.00 0.00 0.00 0.00 0.00 0.00 0.00 0.00 0.00 0.00 0.00 0.00 0.00 0.00 0.01 0.00 0.00 0.01 0.01 0.01 0.01 0.01 0.01 0.01 0.01 0.01 0.01 0.01 0.02 0.02 0.02
0.01 0.01 0.01 0.01 0.00 0.01 0.01 0.01 0.01 0.01 0.01 0.00 0.00 0.00 0.00 0.00 0.00 0.00 0.00 0.00 0.00 0.00 0.00 0.00 0.00 0.00 0.00 0.00 0.01 0.01 0.01 0.01 0.01 0.01 0.00 0.00 0.00 0.01 0.01 0.01 0.01 0.01 0.01 0.01
0.01 0.01 0.01 0.00 0.00 0.00 0.00 0.00 0.00 0.00 0.00 0.00 0.00 0.00 0.00 0.00 0.00 0.00 0.00 0.00 0.00 0.00 0.00 0.00 0.00 0.00 0.00 0.00 0.00 0.00 0.00 0.00 0.00 0.00 0.00 0.00 0.00 0.00 0.00 0.00 0.00 0.00 0.00 0.00
0.01 0.01 0.01 0.01 0.00 0.00 0.00 0.00 0.00 0.00 0.00 0.00 0.00 0.00 0.00 0.00 0.00 0.00 0.00 0.00 0.00 0.00 0.00 0.00 0.00 0.00 0.00 0.00 0.00 0.00 0.00 0.00 0.00 0.00 0.00 0.00 0.00 0.00 0.00 0.00 0.00 0.00 0.00 0.00
0.01 0.01 0.02 0.01 0.01 0.01 0.00 0.00 0.00 0.00 0.00 0.00 0.00 0.00 0.00 0.00 0.00 0.00 0.00 0.00 0.00 0.00 0.00 0.00 0.00 0.00 0.00 0.00 0.00 0.00 0.00 0.00 0.00 0.00 0.00 0.00 0.00 0.00 0.00 0.00 0.00 0.00 0.00 0.00
0.01 0.01 0.02 0.02 0.01 0.00 0.00 0.00 0.00 0.00 0.00 0.00 0.00 0.00 0.00 0.00 0.00 0.00 0.00 0.00 0.00 0.00 0.00 0.00 0.00 0.00 0.00 0.00 0.00 0.00 0.00 0.00 0.00 0.00 0.00 0.00 0.00 0.00 0.00 0.00 0.00 0.00 0.00 0.00
0.01 0.02 0.04 0.03 0.02 0.01 0.01 0.01 0.01 0.01 0.01 0.01 0.00 0.00 0.00 0.00 0.00 0.00 0.00 0.00 0.00 0.00 0.00 0.00 0.00 0.00 0.00 0.00 0.00 0.00 0.00 0.00 0.00 0.00 0.00 0.00 0.00 0.00 0.00 0.00 0.00 0.00 0.00 0.00
0.02 0.03 0.04 0.03 0.03 0.02 0.01 0.00 0.01 0.02 0.02 0.01 0.01 0.01 0.01 0.00 0.00 0.00 0.00 0.00 0.00 0.00 0.00 0.00 0.00 0.00 0.00 0.00 0.00 0.00 0.00 0.00 0.00 0.00 0.00 0.00 0.00 0.00 0.00 0.00 0.00 0.00 0.00 0.00
0.01 0.02 0.03 0.03 0.04 0.03 0.01 0.00 0.01 0.02 0.02 0.02 0.02 0.01 0.01 0.01 0.01 0.01 0.01 0.01 0.00 0.00 0.00 0.00 0.00 0.00 0.00 0.00 0.00 0.00 0.00 0.00 0.00 0.00 0.00 0.00 0.00 0.00 0.00 0.00 0.00 0.00 0.00 0.00
0.02 0.02 0.03 0.03 0.03 0.02 0.01 0.01 0.01 0.01 0.02 0.03 0.03 0.02 0.02 0.02 0.02 0.02 0.02 0.02 0.01 0.00 0.00 0.00 0.00 0.00 0.00 0.00 0.00 0.00 0.00 0.00 0.00 0.00 0.00 0.00 0.00 0.00 0.00 0.00 0.00 0.00 0.00 0.00
0.03 0.02 0.02 0.03 0.03 0.02 0.01 0.01 0.01 0.01 0.01 0.01 0.01 0.01 0.01 0.01 0.01 0.01 0.01 0.01 0.01 0.01 0.00 0.00 0.00 0.00 0.00 0.00 0.00 0.00 0.00 0.00 0.00 0.00 0.00 0.00 0.00 0.00 0.00 0.00 0.00 0.00 0.00 0.00
0.02 0.02 0.02 0.03 0.02 0.02 0.01 0.01 0.00 0.00 0.01 0.01 0.01 0.01 0.01 0.00 0.00 0.00 0.00 0.00 0.00 0.00 0.00 0.00 0.00 0.01 0.01 0.01 0.00 0.00 0.00 0.00 0.00 0.00 0.00 0.00 0.00 0.00 0.00 0.00 0.00 0.00 0.00 0.00
0.02 0.02 0.03 0.02 0.01 0.01 0.01 0.01 0.00 0.00 0.00 0.00 0.00 0.00 0.00 0.00 0.00 0.00 0.00 0.00 0.00 0.01 0.01 0.01 0.01 0.01 0.01 0.01 0.00 0.00 0.00 0.00 0.00 0.00 0.00 0.00 0.00 0.00 0.00 0.00 0.00 0.01 0.01 0.01
MSLP
1020.07 1020.13 1020.12 1020.05 1019.95 1019.82 1019.63 1019.36 1018.96 1018.40 1017.66 1016.75 1015.70 1014.58 1013.47 1012.47 1011.64 1011.02 1010.61 1010.38 1010.27 1010.21 1010.13 1010.00 1009.81 1009.58 1009.37 1009.24 1009.26 1009.48 1009.91 1010.54 1011.33 1012.21 1013.10 1013.96 1014.73 1015.40 1015.96 1016.45 1016.88 1017.30 1017.72 1018.16
1019.84 1019.82 1019.74 1019.63 1019.52 1019.42 1019.31 1019.16 1018.90 1018.49 1017.88 1017.06 1016.07 1014.97 1013.83 1012.76 1011.83 1011.12 1010.63 1010.35 1010.22 1010.16 1010.12 1010.05 1009.90 1009.71 1009.52 1009.39 1009.39 1009.57 1009.96 1010.56 1011.33 1012.21 1013.12 1014.01 1014.82 1015.52 1016.11 1016.62 1017.06 1017.47 1017.88 1018.29
1019.53 1019.42 1019.27 1019.13 1019.03 1018.99 1018.98 1018.97 1018.88 1018.64 1018.19 1017.50 1016.59 1015.51 1014.35 1013.22 1012.21 1011.40 1010.82 1010.47 1010.30 1010.25 1010.23 1010.19 1010.09 1009.94 1009.76 1009.62 1009.60 1009.74 1010.10 1010.67 1011.42 1012.30 1013.23 1014.15 1015.00 1015.74 1016.36 1016.88 1017.31 1017.70 1018.07 1018.45
1019.22 1019.03 1018.83 1018.66 1018.58 1018.60 1018.71 1018.85 1018.93 1018.86 1018.56 1018.00 1017.18 1016.13 1014.96 1013.78 1012.69 1011.79 1011.13 1010.71 1010.51 1010.45 1010.45 1010.44 1010.37 1010.25 1010.08 1009.95 1009.90 1010.01 1010.33 1010.86 1011.59 1012.46 1013.41 1014.35 1015.24 1016.01 1016.65 1017.17 1017.58 1017.94 1018.26 1018.58
1018.98 1018.72 1018.47 1018.29 1018.24 1018.33 1018.54 1018.81 1019.04 1019.12 1018.96 1018.51 1017.76 1016.76 1015.58 1014.35 1013.20 1012.23 1011.50 1011.03 1010.80 1010.73 1010.74 1010.76 1010.73 1010.63 1010.48 1010.34 1010.27 1010.34 1010.61 1011.10 1011.79 1012.64 1013.59 1014.55 1015.45 1016.25 1016.90 1017.41 1017.80 1018.11 1018.38 1018.63
1018.82 1018.52 1018.25 1018.07 1018.04 1018.19 1018.49 1018.86 1019.20 1019.39 1019.34 1018.97 1018.28 1017.30 1016.13 1014.87 1013.68 1012.66 1011.89 1011.39 1011.14 1011.07 1011.10 1011.15 1011.15 1011.07 1010.93 1010.78 1010.67 1010.69 1010.90 1011.33 1011.98 1012.79 1013.71 1014.67 1015.57 1016.37 1017.02 1017.52 1017.90 1018.17 1018.39 1018.59
1018.74 1018.42 1018.15 1017.99 1017.99 1018.19 1018.54 1018.98 1019.38 1019.64 1019.65 1019.33 1018.68 1017.72 1016.55 1015.30 1014.10 1013.06 1012.27 1011.76 1011.51 1011.45 1011.50 1011.58 1011.60 1011.54 1011.40 1011.22 1011.07 1011.03 1011.17 1011.52 1012.09 1012.85 1013.72 1014.64 1015.53 1016.32 1016.97 1017.46 1017.82 1018.07 1018.26 1018.43
1018.68 1018.38 1018.14 1018.02 1018.06 1018.30 1018.68 1019.14 1019.57 1019.85 1019.87 1019.57 1018.94 1018.00 1016.85 1015.61 1014.42 1013.40 1012.62 1012.12 1011.88 1011.84 1011.92 1012.01 1012.05 1011.99 1011.84 1011.63 1011.43 1011.32 1011.37 1011.63 1012.11 1012.77 1013.58 1014.45 1015.31 1016.08 1016.72 1017.21 1017.57 1017.82 1018.01 1018.18
1018.59 1018.36 1018.17 1018.11 1018.20 1018.47 1018.86 1019.32 1019.73 1019.99 1020.00 1019.69 1019.06 1018.14 1017.02 1015.82 1014.67 1013.68 1012.94 1012.46 1012.25 1012.22 1012.31 1012.41 1012.45 1012.38 1012.21 1011.96 1011.71 1011.53 1011.49 1011.64 1012.02 1012.59 1013.31 1014.11 1014.93 1015.68 1016.31 1016.81 1017.18 1017.45 1017.66 1017.85
1018.46 1018.31 1018.21 1018.22 1018.37 1018.66 1019.06 1019.49 1019.86 1020.06 1020.03 1019.70 1019.07 1018.17 1017.09 1015.95 1014.85 1013.92 1013.22 1012.78 1012.58 1012.57 1012.65 1012.74 1012.77 1012.69 1012.50 1012.22 1011.91 1011.66 1011.54 1011.60 1011.87 1012.34 1012.97 1013.70 1014.46 1015.19 1015.82 1016.33 1016.74 1017.04 1017.29 1017.52
1018.28 1018.23 1018.23 1018.33 1018.53 1018.84 1019.22 1019.62 1019.92 1020.07 1019.98 1019.62 1018.99 1018.12 1017.09 1016.02 1014.99 1014.13 1013.48 1013.06 1012.87 1012.85 1012.92 1012.99 1013.00 1012.90 1012.69 1012.38 1012.04 1011.74 1011.56 1011.54 1011.72 1012.10 1012.65 1013.30 1014.02 1014.71 1015.34 1015.88 1016.31 1016.66 1016.95 1017.22
1018.10 1018.15 1018.25 1018.42 1018.68 1019.00 1019.35 1019.69 1019.92 1020.00 1019.85 1019.46 1018.83 1018.00 1017.04 1016.04 1015.10 1014.29 1013.69 1013.30 1013.11 1013.07 1013.11 1013.15 1013.14 1013.02 1012.80 1012.49 1012.15 1011.83 1011.61 1011.54 1011.66 1011.97 1012.44 1013.03 1013.69 1014.35 1014.97 1015.52 1015.98 1016.37 1016.70 1017.00
1017.97 1018.11 1018.29 1018.52 1018.80 1019.11 1019.42 1019.68 1019.84 1019.83 1019.63 1019.22 1018.60 1017.81 1016.92 1016.01 1015.15 1014.42 1013.85 1013.48 1013.28 1013.21 1013.21 1013.23 1013.19 1013.08 1012.86 1012.58 1012.26 1011.96 1011.75 1011.67 1011.74 1012.00 1012.40 1012.93 1013.54 1014.16 1014.77 1015.32 1015.79 1016.20 1016.55 1016.87
1017.94 1018.14 1018.37 1018.62 1018.89 1019.16 1019.40 1019.57 1019.64 1019.56 1019.30 1018.87 1018.28 1017.55 1016.74 1015.91 1015.14 1014.47 1013.95 1013.59 1013.37 1013.28 1013.25 1013.23 1013.19 1013.09 1012.91 1012.68 1012.42 1012.17 1011.99 1011.92 1011.99 1012.21 1012.57 1013.04 1013.59 1014.17 1014.74 1015.27 1015.75 1016.16 1016.52 1016.84
1018.03 1018.25 1018.48 1018.71 1018.93 1019.12 1019.27 1019.34 1019.31 1019.15 1018.86 1018.42 1017.86 1017.19 1016.48 1015.75 1015.07 1014.47 1013.99 1013.64 1013.42 1013.29 1013.23 1013.20 1013.16 1013.09 1012.96 1012.80 1012.62 1012.46 1012.34 1012.31 1012.39 1012.59 1012.91 1013.33 1013.82 1014.34 1014.87 1015.37 1015.82 1016.22 1016.57 1016.87
1018.20 1018.40 1018.59 1018.75 1018.89 1018.98 1019.02 1018.98 1018.85 1018.62 1018.29 1017.86 1017.35 1016.76 1016.14 1015.53 1014.94 1014.42 1013.98 1013.65 1013.42 1013.27 1013.19 1013.15 1013.12 1013.09 1013.03 1012.96 1012.87 1012.79 1012.76 1012.78 1012.88 1013.07 1013.36 1013.72 1014.16 1014.62 1015.10 1015.56 1015.98 1016.36 1016.68 1016.96
1018.41 1018.55 1018.66 1018.73 1018.76 1018.73 1018.64 1018.50 1018.28 1018.00 1017.65 1017.24 1016.79 1016.30 1015.79 1015.28 1014.79 1014.34 1013.96 1013.65 1013.41 1013.25 1013.16 1013.11 1013.10 1013.11 1013.12 1013.12 1013.13 1013.15 1013.18 1013.26 1013.39 1013.58 1013.84 1014.16 1014.54 1014.95 1015.37 1015.79 1016.18 1016.53 1016.83 1017.09
1018.57 1018.63 1018.65 1018.61 1018.52 1018.38 1018.18 1017.94 1017.66 1017.35 1017.01 1016.64 1016.26 1015.87 1015.47 1015.06 1014.67 1014.29 1013.95 1013.66 1013.43 1013.25 1013.14 1013.10 1013.10 1013.13 1013.20 1013.28 1013.37 1013.46 1013.57 1013.69 1013.85 1014.04 1014.28 1014.57 1014.90 1015.26 1015.65 1016.03 1016.39 1016.72 1017.01 1017.26
1018.62 1018.60 1018.53 1018.40 1018.21 1017.97 1017.70 1017.40 1017.09 1016.78 1016.46 1016.16 1015.86 1015.56 1015.26 1014.95 1014.63 1014.32 1014.01 1013.73 1013.48 1013.29 1013.16 1013.10 1013.10 1013.16 1013.26 1013.39 1013.54 1013.70 1013.86 1014.02 1014.20 1014.41 1014.64 1014.90 1015.21 1015.54 1015.90 1016.26 1016.61 1016.93 1017.22 1017.46
1018.54 1018.46 1018.32 1018.13 1017.88 1017.59 1017.29 1016.98 1016.67 1016.38 1016.12 1015.88 1015.66 1015.45 1015.22 1014.98 1014.72 1014.43 1014.14 1013.85 1013.58 1013.36 1013.20 1013.11 1013.10 1013.16 1013.28 1013.44 1013.63 1013.83 1014.03 1014.24 1014.44 1014.66 1014.89 1015.16 1015.45 1015.78 1016.13 1016.48 1016.83 1017.16 1017.44 1017.68
1018.35 1018.24 1018.08 1017.86 1017.61 1017.33 1017.03 1016.75 1016.48 1016.25 1016.04 1015.87 1015.70 1015.54 1015.36 1015.15 1014.91 1014.62 1014.31 1013.99 1013.68 1013.42 1013.22 1013.10 1013.07 1013.12 1013.24 1013.42 1013.63 1013.87 1014.10 1014.34 1014.57 1014.81 1015.06 1015.33 1015.64 1015.97 1016.33 1016.70 1017.05 1017.39 1017.68 1017.92
1018.12 1018.02 1017.88 1017.69 1017.48 1017.24 1017.00 1016.78 1016.57 1016.39 1016.23 1016.10 1015.96 1015.82 1015.64 1015.41 1015.14 1014.82 1014.46 1014.09 1013.73 1013.41 1013.17 1013.02 1012.96 1013.00 1013.13 1013.32 1013.55 1013.81 1014.07 1014.34 1014.60 1014.87 1015.15 1015.45 1015.78 1016.13 1016.51 1016.89 1017.26 1017.60 1017.90 1018.14
1017.93 1017.88 1017.79 1017.67 1017.53 1017.37 1017.21 1017.05 1016.90 1016.76 1016.63 1016.50 1016.35 1016.17 1015.94 1015.65 1015.30 1014.91 1014.48 1014.05 1013.63 1013.27 1012.99 1012.82 1012.75 1012.79 1012.92 1013.13 1013.38 1013.67 1013.97 1014.27 1014.57 1014.88 1015.19 1015.52 1015.88 1016.26 1016.65 1017.04 1017.42 1017.76 1018.05 1018.28
1017.86 1017.88 1017.87 1017.84 1017.78 1017.70 1017.61 1017.51 1017.39 1017.26 1017.11 1016.93 1016.71 1016.45 1016.12 1015.73 1015.28 1014.79 1014.28 1013.78 1013.31 1012.92 1012.63 1012.45 1012.39 1012.45 1012.61 1012.85 1013.14 1013.47 1013.81 1014.15 1014.49 1014.84 1015.18 1015.55 1015.93 1016.32 1016.73 1017.13 1017.50 1017.84 1018.11 1018.33
1017.96 1018.05 1018.12 1018.16 1018.18 1018.17 1018.13 1018.04 1017.91 1017.74 1017.52 1017.24 1016.90 1016.50 1016.04 1015.51 1014.94 1014.35 1013.76 1013.21 1012.72 1012.32 1012.04 1011.90 1011.88 1011.99 1012.20 1012.49 1012.83 1013.21 1013.60 1013.98 1014.37 1014.74 1015.13 1015.51 1015.91 1016.32 1016.72 1017.12 1017.48 1017.80 1018.05 1018.24
1018.21 1018.36 1018.49 1018.59 1018.66 1018.67 1018.63 1018.51 1018.33 1018.06 1017.71 1017.29 1016.79 1016.22 1015.59 1014.92 1014.23 1013.55 1012.90 1012.32 1011.83 1011.47 1011.24 1011.16 1011.22 1011.40 1011.69 1012.05 1012.46 1012.90 1013.34 1013.77 1014.19 1014.61 1015.01 1015.42 1015.82 1016.23 1016.63 1017.01 1017.35 1017.65 1017.88 1018.05
Thickness
5576 5569 5567 5570 5571 5574 5571 5567 5567 5572 5577 5575 5576 5582 5591 5595 5594 5594 5595 5595 5597 5600 5602 5603 5604 5604 5604 5603 5604 5604 5605 5605 5606 5605 5606 5607 5609 5610 5611 5613 5615 5617 5619 5620
5567 5566 5573 5572 5569 5567 5565 5564 5563 5569 5573 5572 5570 5578 5589 5593 5593 5595 5595 5594 5595 5596 5598 5599 5599 5598 5598 5598 5599 5600 5600 5599 5600 5601 5601 5602 5603 5604 5605 5606 5608 5610 5612 5613
5566 5572 5574 5570 5565 5562 5561 5560 5562 5563 5565 5566 5565 5577 5587 5593 5592 5593 5594 5594 5594 5594 5594 5594 5594 5593 5592 5593 5594 5595 5594 5594 5594 5595 5595 5595 5595 5596 5597 5599 5600 5603 5605 5606
5562 5568 5569 5567 5564 5562 5560 5565 5563 5560 5554 5550 5556 5559 5582 5585 5587 5591 5592 5590 5590 5591 5590 5590 5590 5589 5589 5589 5590 5590 5589 5589 5590 5591 5591 5591 5591 5591 5592 5593 5594 5596 5598 5599
5561 5565 5565 5564 5566 5563 5561 5563 5559 5556 5550 5546 5548 5548 5570 5577 5583 5588 5589 5588 5588 5587 5587 5586 5587 5586 5586 5585 5585 5585 5585 5585 5586 5586 5587 5586 5585 5585 5585 5586 5587 5588 5589 5591
5560 5563 5564 5564 5565 5562 5558 5555 5550 5541 5540 5545 5550 5545 5561 5569 5579 5584 5585 5584 5583 5582 5582 5581 5581 5580 5580 5579 5579 5580 5580 5579 5580 5580 5580 5580 5579 5579 5579 5579 5580 5580 5580 5582
5555 5558 5560 5561 5558 5556 5553 5546 5537 5537 5530 5543 5546 5543 5558 5576 5577 5578 5579 5578 5578 5578 5577 5575 5574 5573 5573 5573 5573 5573 5573 5573 5573 5573 5573 5574 5574 5573 5572 5572 5572 5572 5572 5573
5545 5549 5556 5555 5556 5550 5546 5546 5537 5535 5534 5535 5537 5539 5563 5574 5572 5572 5572 5572 5572 5571 5571 5570 5569 5568 5567 5568 5567 5567 5567 5566 5566 5566 5565 5565 5566 5565 5565 5565 5565 5565 5565 5566
5538 5544 5551 5551 5551 5549 5541 5534 5538 5527 5524 5524 5535 5542 5558 5569 5567 5566 5565 5564 5564 5564 5564 5564 5563 5562 5561 5561 5561 5560 5560 5559 5559 5558 5557 5558 5558 5557 5556 5556 5556 5556 5557 5557
5536 5535 5541 5541 5543 5541 5539 5531 5519 5521 5524 5529 5538 5540 5550 5559 5559 5558 5556 5555 5555 5556 5556 5556 5555 5553 5553 5553 5552 5552 5552 5551 5551 5550 5550 5550 5549 5549 5549 5549 5548 5548 5548 5547
5527 5524 5527 5529 5531 5532 5526 5524 5521 5513 5514 5519 5525 5544 5552 5552 5552 5550 5549 5548 5548 5548 5548 5547 5547 5545 5544 5543 5543 5543 5542 5542 5542 5542 5542 5541 5541 5541 5540 5540 5540 5539 5539 5539
5515 5508 5508 5517 5524 5524 5523 5522 5514 5515 5511 5503 5505 5534 5548 5544 5542 5542 5541 5542 5541 5541 5539 5538 5537 5536 5535 5535 5534 5534 5533 5533 5533 5532 5532 5531 5531 5531 5531 5531 5531 5530 5530 5530
5506 5501 5502 5511 5512 5509 5511 5513 5510 5507 5500 5492 5500 5531 5538 5533 5535 5535 5534 5533 5532 5532 5530 5529 5528 5527 5527 5526 5525 5525 5524 5524 5523 5523 5522 5521 5521 5521 5522 5522 5521 5521 5520 5519
5500 5492 5497 5507 5514 5505 5502 5505 5501 5498 5493 5494 5502 5522 5531 5528 5527 5526 5525 5523 5521 5521 5520 5519 5518 5517 5517 5516 5516 5515 5515 5515 5514 5513 5512 5511 5511 5511 5512 5512 5511 5510 5509 5508
5485 5480 5482 5490 5496 5492 5495 5498 5493 5492 5496 5497 5510 5510 5522 5520 5516 5515 5514 5512 5511 5511 5510 5510 5509 5508 5507 5507 5506 5506 5506 5505 5505 5504 5503 5502 5502 5501 5500 5500 5500 5499 5498 5497
5468 5468 5470 5475 5482 5481 5485 5491 5490 5492 5493 5493 5498 5503 5510 5506 5504 5502 5501 5501 5501 5501 5501 5500 5499 5498 5497 5497 5497 5497 5496 5495 5494 5493 5492 5492 5491 5490 5489 5489 5488 5487 5487 5486
5451 5452 5455 5459 5465 5467 5472 5486 5486 5485 5485 5486 5489 5498 5497 5495 5495 5492 5491 5491 5491 5491 5491 5490 5489 5488 5488 5487 5487 5486 5486 5485 5483 5482 5481 5480 5480 5479 5478 5477 5476 5475 5475 5474
5442 5443 5441 5441 5446 5448 5483 5482 5481 5477 5477 5477 5481 5484 5483 5483 5481 5479 5478 5478 5479 5480 5480 5480 5479 5478 5478 5477 5476 5476 5474 5473 5471 5470 5469 5468 5467 5466 5465 5464 5464 5463 5463 5462
5439 5438 5431 5431 5434 5449 5464 5468 5463 5462 5465 5467 5467 5467 5467 5466 5466 5467 5469 5468 5469 5469 5469 5469 5468 5468 5467 5466 5465 5464 5462 5461 5459 5458 5457 5456 5455 5454 5453 5452 5451 5451 5450 5450
5425 5426 5424 5422 5428 5438 5455 5457 5455 5455 5452 5456 5453 5452 5452 5452 5449 5455 5458 5457 5457 5457 5456 5457 5456 5455 5454 5454 5453 5451 5449 5448 5447 5447 5446 5444 5443 5442 5441 5440 5440 5439 5438 5437
5411 5410 5413 5415 5420 5430 5438 5441 5443 5440 5445 5443 5441 5440 5438 5436 5439 5441 5442 5442 5443 5444 5444 5444 5443 5442 5442 5441 5439 5438 5437 5436 5436 5435 5433 5432 5430 5429 5429 5428 5427 5426 5425 5424
5404 5401 5403 5405 5407 5419 5427 5426 5426 5429 5429 5429 5428 5427 5426 5426 5427 5427 5428 5428 5429 5430 5430 5431 5430 5429 5429 5428 5426 5425 5424 5424 5423 5421 5420 5419 5418 5417 5416 5415 5414 5412 5411 5410
5394 5398 5397 5400 5408 5410 5411 5413 5414 5413 5413 5414 5414 5415 5414 5414 5413 5414 5415 5415 5415 5416 5416 5416 5416 5415 5415 5414 5413 5412 5411 5410 5409 5407 5406 5405 5404 5404 5403 5401 5400 5399 5398 5397
5381 5384 5383 5384 5392 5394 5396 5398 5399 5400 5400 5401 5401 5401 5401 5400 5400 5401 5401 5402 5402 5402 5402 5403 5402 5402 5401 5401 5399 5398 5398 5397 5396 5394 5393 5392 5391 5391 5390 5389 5388 5387 5386 5385
5373 5371 5370 5372 5377 5380 5384 5385 5386 5387 5388 5388 5389 5389 5388 5388 5389 5389 5388 5388 5388 5389 5389 5389 5388 5388 5388 5388 5387 5386 5385 5384 5383 5382 5381 5380 5379 5378 5377 5377 5376 5376 5377 5375
5361 5361 5362 5367 5370 5368 5370 5372 5373 5373 5374 5375 5376 5377 5377 5376 5376 5376 5375 5375 5375 5375 5375 5375 5375 5375 5375 5375 5374 5374 5373 5372 5370 5369 5368 5367 5366 5365 5364 5364 5364 5366 5365 5366